"Time","Temp","Dewpoint","Humidity","Pressure","Direction","Speed","Gust","Precip","PrecipRate"
"00:04:59","66.9","62.6","86.1","30.04","143","0","0","0.00","0.00"
"00:09:56","66.7","62.5","86.2","30.04","143","0","0","0.00","0.00"
"00:14:56","66.6","62.6","87","30.04","143","0","0","0.00","0.00"
"00:19:57","66.5","62.5","87","30.04","143","0","0","0.00","0.00"
"00:24:56","66.4","62.4","87","30.04","143","0","0","0.00","0.00"
"00:29:59","66.4","62.5","87.5","30.04","143","0","0","0.00","0.00"
"00:34:58","66.4","62.4","87.2","30.03","143","0","0","0.00","0.00"
"00:39:58","66.1","62.1","87","30.03","143","0","0","0.00","0.00"
"00:44:57","65.8","62.1","87.7","30.03","143","0","0","0.00","0.00"
"00:49:56","65.7","62","88","30.03","143","0","0","0.00","0.00"
"00:54:59","65.5","61.9","88","30.03","143","0","0","0.00","0.00"
"00:59:58","65.5","62.2","89","30.03","143","0","0","0.00","0.00"
"01:04:56","65.4","62.1","89","30.03","143","0","0","0.00","0.00"
"01:09:59","65.3","62","89","30.03","143","0","0","0.00","0.00"
"01:14:56","65.2","61.9","89","30.03","143","0","0","0.00","0.00"
"01:19:59","65.2","61.9","89","30.02","143","0","0","0.00","0.00"
"01:24:58","65.1","61.8","89","30.02","143","0","0","0.00","0.00"
"01:29:56","65","61.7","89","30.02","143","0","0","0.00","0.00"
"01:34:59","64.9","61.8","89.8","30.02","143","0","0","0.00","0.00"
"01:39:59","64.7","61.7","90","30.02","143","0","0","0.00","0.00"
"01:44:59","64.7","61.8","90.3","30.02","143","0","0","0.00","0.00"
"01:49:58","64.7","61.7","90","30.02","143","0","0","0.00","0.00"
"01:54:57","64.7","61.7","90","30.02","143","0","0","0.00","0.00"
"01:59:56","64.6","61.6","90","30.02","143","0","0","0.00","0.00"
"02:04:58","64.5","61.5","90.2","30.01","143","0","0","0.00","0.00"
"02:09:58","64.4","61.7","91","30.01","143","0","0","0.00","0.00"
"02:14:58","64.3","61.6","91","30.01","143","0","0","0.00","0.00"
"02:19:56","64.3","61.6","91","30.01","143","0","0","0.00","0.00"
"02:24:59","64.3","61.6","91","30.01","143","0","0","0.00","0.00"
"02:29:58","64.3","61.6","91","30.01","143","0","0","0.00","0.00"
"02:34:57","64.4","61.7","91","30.01","143","0","0","0.00","0.00"
"02:39:57","64.4","61.7","91","30.01","143","0","0","0.00","0.00"
"02:44:56","64.4","61.7","91","30.01","143","0","0","0.00","0.00"
"02:49:59","64.4","61.7","91","30.00","143","0","0","0.00","0.00"
"02:54:58","64.4","61.7","91","30.00","143","0","0","0.00","0.00"
"02:59:57","64.4","61.7","91","30.00","143","0","0","0.00","0.00"
"03:04:56","64.4","61.7","91","30.00","143","0","0","0.00","0.00"
"03:09:56","64.3","61.6","91","30.00","143","0","0","0.00","0.00"
"03:14:56","64.3","61.6","91","30.00","143","0","0","0.00","0.00"
"03:19:59","64.2","61.5","91","29.99","143","0","0","0.00","0.00"
"03:24:57","64.1","61.4","91","29.99","143","0","0","0.00","0.00"
"03:29:56","64","61.3","91.2","29.99","143","0","0","0.00","0.00"
"03:34:59","63.9","61.4","91.8","29.99","143","0","0","0.00","0.00"
"03:39:59","63.9","61.5","92","29.99","143","0","0","0.00","0.00"
"03:44:58","63.9","61.5","92","29.99","143","0","0","0.00","0.00"
"03:49:57","63.8","61.4","92","29.98","143","0","0","0.00","0.00"
"03:54:55","63.7","61.3","92","29.98","143","0","0","0.00","0.00"
"03:59:58","63.6","61.2","92","29.98","143","0","0","0.00","0.00"
"04:04:56","63.6","61.4","92.6","29.98","143","0","0","0.00","0.00"
"04:09:55","63.6","61.5","93","29.98","143","0","0","0.00","0.00"
"04:14:56","63.7","61.6","93","29.98","143","0","0","0.00","0.00"
"04:19:58","63.7","61.6","93","29.98","143","0","0","0.00","0.00"
"04:24:57","63.8","61.7","93","29.98","143","0","0","0.00","0.00"
"04:29:56","63.9","62","93.6","29.98","143","0","0","0.00","0.00"
"04:34:55","64.1","62.3","94","29.98","143","0","0","0.00","0.00"
"04:39:56","64.2","62.3","93.7","29.98","143","0","0","0.00","0.00"
"04:44:58","64.4","62.3","93.1","29.98","143","0","0","0.00","0.00"
"04:49:57","64.5","62.4","93","29.97","143","0","0","0.00","0.00"
"04:54:56","64.5","62.4","93","29.97","143","0","0","0.00","0.00"
"04:59:59","64.6","62.5","93","29.97","143","0","0","0.00","0.00"
"05:04:58","64.6","62.5","93","29.97","143","0","0","0.00","0.00"
"05:09:57","64.6","62.5","93","29.97","143","0","0","0.00","0.00"
"05:14:57","64.6","62.5","93","29.97","143","0","0","0.00","0.00"
"05:19:56","64.5","62.4","93","29.97","143","0","0","0.00","0.00"
"05:24:59","64.5","62.4","93","29.97","143","0","0","0.00","0.00"
"05:29:58","64.5","62.4","93","29.97","114","0","0","0.00","0.00"
"05:34:57","64.5","62.4","93","29.96","275","0","0","0.00","0.00"
"05:39:57","64.5","62.4","93","29.96","275","0","0","0.00","0.00"
"05:44:56","64.5","62.4","93","29.96","275","0","0","0.00","0.00"
"05:49:59","64.5","62.4","93","29.96","275","0","0","0.00","0.00"
"05:54:58","64.5","62.4","93","29.96","275","0","0","0.00","0.00"
"05:59:57","64.5","62.4","93","29.96","275","0","0","0.00","0.00"
"06:04:56","64.5","62.4","93","29.96","275","0","0","0.00","0.00"
"06:09:56","64.5","62.4","93","29.96","275","0","0","0.00","0.00"
"06:14:57","64.5","62.4","93","29.96","275","0","0","0.00","0.00"
"06:19:59","64.5","62.5","93.2","29.96","275","0.1","1.2","0.00","0.00"
"06:24:58","64.6","62.8","94","29.96","275","0","0","0.00","0.00"
"06:29:56","64.6","62.8","93.8","29.96","275","0","0","0.00","0.00"
"06:34:59","64.7","62.9","94","29.96","275","0","0","0.00","0.00"
"06:39:59","64.7","62.9","94","29.96","275","0","0","0.00","0.00"
